Terug naar catalogus

COSMOS 2008

ActiefMilitairLEO
NORAD 19902·PAYLOAD·🇷🇺 Russia

Gelanceerd Mar 24, 1989 vanaf Plesetsk Cosmodrome

Loading…

Volgende Passages (komende 24 uur)

TLE

VersSource: Space-Track

Epoch: Sep 14, 2026, 12:38 UTC

1 19902U 89025A   26257.52656551 -.00000013  00000-0  20301-4 0  9997
2 19902  74.0074 277.5994 0049270 131.7476 302.3566 12.57871726720784

Volg COSMOS 2008 in realtime met AllMySat

Download on the App Store